Skip Page Navigation
NASA JPL Caltech
NASA Logo - Jet Propulsion Laboratory + View the NASA Portal
+ Center for Near-Earth Object Studies
JPL Home Earth Solar System Stars & Galaxies Technology
JPL Solar System Dynamics
BODIES ORBITS EPHEMERIDES TOOLS PHYSICAL DATA DISCOVERY FAQ SITE MAP
IMPORTANT: The SSD Announcement email list is now available. Major changes are coming in the near future, including possible hostname and/or URL changes. To be notified of such changes, subscribe to this email list.

Please visit this page for more details.


JPL Small-Body Database Browser
Search: [ help ]  
1503 Kuopio (1938 XD)
Classification: Main-belt Asteroid          SPK-ID: 2001503
Ephemeris | Orbit Diagram | Orbital Elements | Mission Design | Physical Parameters | Discovery Circumstances ]

[ show orbit diagram ]
Orbital Elements at Epoch 2459000.5 (2020-May-31.0) TDB
Reference: JPL 35 (heliocentric ecliptic J2000)
 Element Value Uncertainty (1-sigma)   Units 
e .1041525356049893 4.9114e-08  
a 2.625309943052851 9.2248e-09 au
q 2.351877255734907 1.3039e-07 au
i 12.36839537556146 5.1745e-06 deg
node 316.959819467321 2.0464e-05 deg
peri 177.7034590727589 3.1178e-05 deg
M 26.83305753652869 2.2459e-05 deg
tp 2458884.692426207741
(2020-Feb-05.19242621)
9.6894e-05 TDB
period 1553.707642465202
4.25
8.1891e-06
2.242e-08
d
yr
n .2317038226244439 1.2212e-09 deg/d
Q 2.898742630370795 1.0186e-08 au
  Orbit Determination Parameters
   # obs. used (total)      2179  
   data-arc span      31021 days (84.93 yr)  
   first obs. used      1935-03-02  
   last obs. used      2020-02-05  
   planetary ephem.      DE431  
   SB-pert. ephem.      SB431-N16  
   condition code      0  
   norm. resid. RMS      .41714  
   source      ORB  
   producer      Otto Matic  
   solution date      2020-Feb-22 15:56:49  

Additional Information
 Earth MOID = 1.36591 au 
 Jupiter MOID = 2.14302 au 
 T_jup = 3.362 
[ show covariance matrix ]

Ephemeris | Orbit Diagram | Orbital Elements | Mission Design | Physical Parameters | Discovery Circumstances ]

Physical Parameter Table
Parameter Symbol Value Units Sigma Reference Notes
absolute magnitude H 10.5   n/a MPO384761  
diameter diameter 22.985 km 0.964 urn:nasa:pds:neowise_diameters_albedos::2.0[mainbelt] (http://adsabs.harvard.edu/abs/2012ApJ...759L...8M)  
rotation period rot_per 9.957 h n/a LCDB (Rev. 2019-August); Warner et al., 2009 Published Reference List:
[Behrend, R. (2001) Observatoire de Geneve web site, http://obswww.unige.ch/~behrend/page_cou.html]
[Behrend, R. (2002) Observatoire de Geneve web site, http://obswww.unige.ch/~behrend/page_cou.html]
[Behrend, R. (2003) Observatoire de Geneve web site, http://obswww.unige.ch/~behrend/page_cou.html]
[Behrend, R. (2005) Observatoire de Geneve web site, http://obswww.unige.ch/~behrend/page_cou.html]
[Szekely, P.; Kiss, L.L.; Szabo, Gy.M.; Sarneczky, K.; et al. (2005) Planet. Space Sci. 53, 925-936.]
[Hanus, J.; Durech, J.; Broz, M.; Warner, B.D.; et al. (2011) Astron. Astrophys. 530, A134.]
[Hanus, J.; Broz, M.; Durech, J.; Warner, B.D.; et al. (2013) Astron. Astrophys. 559, A134.]
[Behrend, R. (2018) Observatoire de Geneve web site, http://obswww.unige.ch/~behrend/page_cou.html]
geometric albedo albedo 0.399   0.262 urn:nasa:pds:neowise_diameters_albedos::2.0[mainbelt] (http://adsabs.harvard.edu/abs/2012ApJ...759L...8M)  

1503 Kuopio (1938 XD)          Discovered 1938-Dec-15 by Vaisala, Y. at Turku
Reference: DISCOVERY.DBLast Updated: 2003-08-29

Alternate Designations
 1938 XD = 1935 EF = 1953 LH 
Ephemeris | Orbit Diagram | Orbital Elements | Mission Design | Physical Parameters | Discovery Circumstances ]
ABOUT SSD CREDITS/AWARDS PRIVACY/COPYRIGHT GLOSSARY LINKS
FirstGov 2020-Apr-09 01:40 UT
(server date/time)  
NASA Home Page
Site Manager:   Ryan S. Park
Webmaster  Alan B. Chamberlin